Regional Weather Roundup
Issued by NWS

Home | Current Version | Previous Version | Text Only | Print | Product List | Glossary On
Versions: 1 2 3 4 5 6 7 8 9 10 11 12 13 14 15 16 17 18 19 20 21 22 23 24 25 26 27 28 29 30 31 32 33 34 35 36 37 38 39 40 41 42 43 44 45 46 47 48 49 50
000
ASUS43 KMPX 110210
RWRMN
WEATHER ROUNDUP FOR MINNESOTA
NATIONAL WEATHER SERVICE TWIN CITIES/CHANHASSEN MN
900 PM CDT THU JUL 10 2014


NOTE: "FAIR" INDICATES FEW OR NO CLOUDS BELOW 12,000 FEET WITH NO
SIGNIFICANT WEATHER AND/OR OBSTRUCTIONS TO VISIBILITY. N/A MEANS
CURRENT SKY AND/OR WEATHER CONDITIONS ARE NOT AVAILABLE.

MNZ060>063-068>070-110300-
   Twin Cities Metro

CITY           SKY/WX    TMP DP  RH WIND       PRES   REMARKS
TWIN CITIES    MOCLDY    79  59  50 SE9       29.97F
ST PAUL        CLOUDY    77  61  57 S10       29.97F
CRYSTAL        MOCLDY    80  57  45 S13       29.95F
BLAINE         MOCLDY    79  61  53 S12       29.97S
LAKEVILLE      MOCLDY    73  61  64 SE5       29.99S
EDEN PRAIRIE   MOCLDY    77  60  55 SE8       29.96F
SOUTH ST PAUL  MOCLDY    78  59  52 S8        29.98S
LAKE ELMO      FAIR      73  63  68 S8        30.00S
$$
MNZ001>005-007-008-013>017-022>024-027-028-110300-
   Northwest Minnesota

CITY           SKY/WX    TMP DP  RH WIND       PRES   REMARKS
BEMIDJI        CLOUDY    73  63  69 S9        29.89S
HALLOCK        PTCLDY    73  63  68 SE7       29.79S
ROSEAU         MOCLDY    72  63  73 SE7       29.85S
WARROAD        MOCLDY    72  63  73 SE5       29.86S
THIEF RVR FALL CLOUDY    75  63  64 SE9       29.85R
CROOKSTON      MOCLDY    75  64  69 S13G20    29.84R
FOSSTON        CLOUDY    73  61  64 S18G25    29.88R
DETROIT LAKES  LGT RAIN  70  66  88 SE6       29.90F
MOORHEAD       CLOUDY    72  72 100 SE6       29.84F
PARK RAPIDS    LGT RAIN  67  66  97 NW5       29.91R FOG
$$
MNZ006-009>011-018-025>026-110300-
   North Central Minnesota

CITY           SKY/WX    TMP DP  RH WIND       PRES   REMARKS
BAUDETTE       MOCLDY    72  59  63 S3        29.88F
FLAG ISLAND    MOCLDY    72  63  73 S10       29.85S
INTL FALLS     CLOUDY    68  57  68 S5        29.91F
WASKISH        MOCLDY    72  63  73 E2        29.89F
BIG FORK       MOCLDY    72  61  68 SE3       29.93F
LONGVILLE      CLOUDY    73  64  73 SE6       29.91F
GRAND RAPIDS   CLOUDY    72  61  68 SE6       29.94F
CRANE LAKE     MOCLDY    63  59  88 CALM      29.95F
ORR            MOCLDY    68  55  64 SE3       29.92F
COOK           MOCLDY    66  59  77 CALM      29.95F
$$
MNZ012-019>021-037-110300-
   Northeast Minnesota

CITY           SKY/WX    TMP DP  RH WIND       PRES   REMARKS
DULUTH         MOCLDY    63  54  72 E8        29.99S
ELY            MOCLDY    70  55  60 S5        29.97S
HIBBING        MOCLDY    72  60  66 SE6       29.95F
EVELETH        MOCLDY    68  59  73 SE3       29.98F
DULUTH HARBOR  MOCLDY    55  52  88 NE8       30.00S
TWO HARBORS    MOCLDY    63  55  77 CALM      29.98S
SILVER BAY     PTCLDY    61  55  82 CALM      29.99S
GRAND MARAIS     N/A     53  45  74 NE3       30.00F
G MARAIS ARPRT CLEAR     59  46  63 CALM      30.05F
$$
MNZ029>031-032-039>041-046>048-054>057-064-110300-
   West Central Minnesota

CITY           SKY/WX    TMP DP  RH WIND       PRES   REMARKS
FERGUS FALLS   CLOUDY    73  64  73 S9        29.87S
WHEATON        LGT RAIN  72  64  78 SE9       29.85F
MORRIS         CLOUDY    75  66  73 S15       29.86F
ALEXANDRIA     LGT RAIN  75  65  70 S10       29.93R
ELBOW LAKE     CLOUDY    72  68  88 S8        29.87F
WADENA         LGT RAIN  72  66  83 SE3       29.89S
GLENWOOD       CLOUDY    75  64  69 S9        29.92S
APPLETON       CLOUDY    73  66  78 SE10      29.86F
BENSON         LGT RAIN  75  66  73 S14G20    29.88F
ORTONVILLE     CLOUDY    73  66  78 SE7       29.86S
MADISON        RAIN      77  66  69 S10       29.88F
WILLMAR        FAIR      79  63  57 S7        29.92F
$$
MNZ033>034-036-042>043-049>051-058-059-110300-
   Central Minnesota

CITY           SKY/WX    TMP DP  RH WIND       PRES   REMARKS
ST CLOUD       CLOUDY    77  61  57 SE8       29.93F
SAUK CENTRE    FAIR      75  64  68 S8        29.91S
PAYNESVILLE    CLOUDY    75  61  61 SE8       29.93F HAZE
AITKIN         CLOUDY    75  64  69 SE6       29.93S
PINE RIVER     LGT RAIN  73  64  73 SE6       29.94F
BRAINERD       CLOUDY    80  63  55 SE8       29.93F
STAPLES        LGT RAIN  73  63  68 S9        29.90S
LONG PRAIRIE   MOCLDY    73  63  68 SE7       29.92R
LITTLE FALLS   CLOUDY    77  59  53 SE9       29.92F
LITCHFIELD     MOCLDY    79  63  57 SE7       29.94F
BUFFALO        MOCLDY    78  60  53 SE6       29.96S
MAPLE LAKE     MOCLDY    78  63  60 S3        29.95F
$$
MNZ037-044-045-052-053-110300-
   East Central Minnesota

CITY           SKY/WX    TMP DP  RH WIND       PRES   REMARKS
PRINCETON      CLOUDY    77  63  61 SE7       29.95S
MORA           CLOUDY    73  63  68 CALM      29.97F
CAMBRIDGE      CLOUDY    79  61  53 SE6       29.95S
RUSH CITY      CLOUDY    73  64  72 SE3       29.96F
MOOSE LAKE     MOCLDY    73  63  68 SE3       29.95F
HINCKLEY       FAIR      73  66  78 SE5       29.96F
CLOQUET        MOCLDY    64  55  72 E5        29.98S
MCGREGOR       MOCLDY    72  63  73 SE6       29.95S
$$
MNZ071>073-080-081-089-090-097-098-110300-
   Southwest Minnesota

CITY           SKY/WX    TMP DP  RH WIND       PRES   REMARKS
MONTEVIDEO     LGT RAIN  75  66  73 S8        29.90S
GRANITE FALLS  LGT RAIN  77  64  65 SE12      29.91F
CANBY          CLOUDY    75  66  73 S9        29.89S
MARSHALL       CLOUDY    75  64  69 S14       29.90S
REDWOOD FALLS  CLOUDY    78  64  61 SE15      29.92F
OLIVIA         LGT RAIN  73  63  68 S10       29.92F
PIPESTONE      CLOUDY    75  64  69 S13G18    29.93R
WINDOM         CLOUDY    73  63  68 SE13      29.95F
WORTHINGTON    CLOUDY    73  64  73 S14G24    29.97R
JACKSON        CLOUDY    75  61  60 S13       29.98S
TRACY          LGT RAIN  76  65  70 S10       29.93R
SLAYTON        CLOUDY    74  65  72 S9G18     29.95S
$$
MNZ065>067-074>077-082>085-091>093-110300-
   South Central Minnesota

CITY           SKY/WX    TMP DP  RH WIND       PRES   REMARKS
MANKATO        MOCLDY    77  57  50 S10G16    29.98S
NEW ULM        LGT RAIN  77  63  61 S13       29.96S
ST JAMES       CLOUDY    79  61  53 SE14      29.98S
FAIRMONT       CLOUDY    75  57  53 S13       29.98S
GLENCOE        MOCLDY    79  59  50 S9        29.96R
FARIBAULT      MOCLDY    79  54  41 SE10      30.00F
OWATONNA       MOCLDY    75  57  53 S10G16    30.01S
WASECA         MOCLDY    73  54  49 S9        30.01F
ALBERT LEA     CLOUDY    75  57  53 S9        30.02S
$$
MNZ078>079-086>088-094>096-110300-
   Southeast Minnesota

CITY           SKY/WX    TMP DP  RH WIND       PRES   REMARKS
ROCHESTER      MOCLDY    72  59  63 S10       30.06S
RED WING       MOCLDY    79  59  50 S7        30.00R
STANTON        MOCLDY    75  59  57 S8        29.99S
DODGE CENTER   CLOUDY    73  61  64 S10       30.04R
WINONA         MOCLDY    75  61  60 SW6       30.04R
AUSTIN         MOCLDY    73  57  56 S8        30.04S
PRESTON        MOCLDY    71  61  69 S9        30.07S
$$
ABBREVIATIONS USED IN REMARKS
   TC - TEMPERATURES IN CELSIUS
  WCI - WIND CHILL INDEX
   HX - HEAT INDEX
  VSB - VISIBILITY
$$



USA.gov is the U.S. government's official web portal to all federal, state and local government web resources and services.